[[{"header":{"parameterUnit":"m.s-1","parameterCategory":1,"la1":30.2991,"la2":30.254,"lo1":-89.0895,"lo2":-89.0444,"dy":0.0017,"dx":0.0017,"nx":28,"ny":28,"refTime":"2024-05-02T21:00:00:Z","depth":0,"parameterNumber":2,"parameterNumberName":"U-component_of_WINDS"},"data":[0,0,0,0,0,0,0,0,0,0,0,0,0,0,0,0,0,0,0,0,0,0,0,0,0,0,0,0,0,0,0,0,0,0,0,0,0,0,0,0,0,0,0,0,0,0,0,0,0,0,0,0,0,0,0,0,0,0,-1.3101,-1.3101,0,-1.3069,-1.3069,-1.3069,-1.3013,-1.3012,-1.3011,-1.301,-1.298,-1.298,-1.298,0,0,0,0,0,0,0,0,0,0,0,0,0,-1.3117,-1.3117,-1.3101,-1.3101,-1.3101,-1.3069,-1.3069,-1.3068,-1.3013,-1.3012,-1.3011,-1.301,-1.298,-1.298,-1.298,0,0,0,0,0,0,0,0,0,0,0,0,0,-1.31,-1.3117,-1.3101,-1.3069,-1.3066,-1.3069,-1.3069,-1.3068,-1.3014,-1.3012,-1.3011,-1.3009,-1.298,-1.298,-1.2981,-1.3014,0,0,-1.2981,-1.2981,0,0,0,0,0,0,0,0,-1.3101,-1.31,-1.3074,-1.3071,-1.3068,-1.3044,-1.3063,-1.305,-1.3014,-1.3034,-1.301,-1.3008,-1.3003,-1.3001,-1.2999,-1.3012,-1.3011,-1.2981,-1.2981,-1.2982,-1.2982,0,0,0,0,0,0,0,-1.3103,-1.3101,-1.3089,-1.3074,-1.307,-1.3057,-1.3053,-1.3061,-1.3028,-1.3032,-1.3028,-1.3025,-1.3001,-1.2998,-1.2997,-1.301,-1.2981,-1.2982,-1.2982,-1.2982,-1.305,-1.3051,0,0,0,0,0,0,-1.3108,-1.3102,-1.309,-1.3088,-1.3081,-1.3058,-1.3054,-1.3053,-1.3027,-1.3022,-1.3026,-1.3022,-1.2999,-1.2997,-1.2996,-1.3033,-1.2982,-1.2982,-1.2982,-1.3048,-1.305,-1.3052,0,0,0,0,0,0,-1.3109,-1.3108,-1.3091,-1.3094,-1.3091,-1.306,-1.3059,-1.3053,-1.3051,-1.3023,-1.3017,-1.303,-1.2997,-1.2996,-1.3009,-1.3031,-1.2982,-1.2982,-1.3046,-1.3049,-1.3051,-1.3108,0,0,0,0,0,0,-1.3109,-1.3108,-1.312,-1.3095,-1.3091,-1.3104,-1.3061,-1.3054,-1.3051,-1.3046,-1.3025,-1.302,-1.2996,-1.3009,-1.301,-1.3031,-1.2982,-1.3044,-1.3047,-1.305,-1.3104,-1.3112,-1.3119,0,0,0,0,0,-1.311,-1.3138,-1.3121,-1.312,-1.3105,-1.3106,-1.3104,-1.3075,-1.3053,-1.3065,-1.3047,-1.302,-1.3029,-1.3011,-1.3011,-1.3033,-1.3042,-1.3046,-1.305,-1.31,-1.311,-1.3118,0,0,0,0,0,0,-1.3167,-1.3134,-1.3115,-1.3134,-1.3123,-1.3096,-1.311,-1.3087,-1.3082,-1.3077,-1.3043,-1.3039,-1.3057,-1.3046,-1.3027,-1.3063,-1.3032,-1.3035,-1.307,-1.3079,-1.3086,-1.3089,-1.2983,0,0,0,0,0,-1.3182,-1.3185,-1.3156,-1.3176,-1.3171,-1.3142,-1.3141,-1.312,-1.3108,-1.3103,-1.3086,-1.3075,-1.3076,-1.3077,-1.3075,-1.3102,-1.3097,-1.3116,-1.3124,-1.313,-1.3134,-1.3148,-1.3156,-1.3064,-1.3064,-1.3064,0,0,-1.3213,-1.3195,-1.3199,-1.3187,-1.3176,-1.318,-1.3138,-1.3145,-1.3148,-1.3104,-1.3116,-1.3103,-1.3089,-1.3109,-1.3117,-1.3101,-1.3158,-1.3135,-1.314,-1.3141,-1.3152,-1.3161,-1.3169,-1.3066,-1.3066,-1.3066,0,0,-1.3272,-1.3258,-1.3273,-1.3263,-1.3246,-1.3226,-1.323,-1.3207,-1.3196,-1.3207,-1.3174,-1.3178,-1.3179,-1.317,-1.3166,-1.3221,-1.3197,-1.3222,-1.3261,-1.3275,-1.3282,-1.3288,-1.3308,-1.3316,-1.3226,-1.3226,-1.3226,0,-1.3312,-1.3317,-1.3285,-1.3293,-1.3289,-1.3248,-1.3264,-1.3256,-1.324,-1.3239,-1.322,-1.322,-1.3208,-1.3226,-1.3239,-1.3237,-1.3241,-1.3224,-1.3283,-1.3289,-1.3295,-1.3313,-1.3321,-1.3229,-1.3229,-1.3228,-1.3228,0,-1.3368,-1.3372,-1.3386,-1.3371,-1.3369,-1.3381,-1.3351,-1.3353,-1.3332,-1.3315,-1.3327,-1.331,-1.3305,-1.3308,-1.3288,-1.3323,-1.3313,-1.3289,-1.3257,-1.3307,-1.3324,-1.3331,-1.3234,-1.3233,-1.3232,-1.3231,0,0,-1.3462,-1.3428,-1.3434,-1.3427,-1.3405,-1.3408,-1.3418,-1.3412,-1.3415,-1.3405,-1.3413,-1.3415,-1.3393,-1.3388,-1.3367,-1.3379,-1.3424,-1.3354,-1.3353,-1.3368,-1.3462,-1.348,-1.3489,-1.3407,-1.3409,-1.341,-1.3463,0,-1.3517,-1.3532,-1.3503,-1.3526,-1.3529,-1.349,-1.3499,-1.3488,-1.3472,-1.3473,-1.3455,-1.3457,-1.3427,-1.3424,-1.3434,-1.3417,-1.3443,-1.3412,-1.3416,-1.3416,-1.3421,-1.3498,-1.3517,-1.3568,-1.347,-1.3471,-1.3472,0,-1.3582,-1.3575,-1.3598,-1.3574,-1.3574,-1.3583,-1.3575,-1.3576,-1.3562,-1.355,-1.3544,-1.3519,-1.3529,-1.3497,-1.351,-1.349,-1.349,-1.3481,-1.3483,-1.3482,-1.3447,-1.35,-1.3584,-1.3592,-1.3482,-1.3481,-1.348,0,-1.365,-1.3645,-1.3658,-1.3653,-1.3626,-1.3633,-1.3622,-1.3606,-1.3605,-1.3598,-1.3596,-1.3591,-1.3589,-1.3586,-1.356,-1.3539,-1.3577,-1.3543,-1.3567,-1.3568,-1.3577,-1.3577,-1.3663,-1.3577,-1.3576,-1.3576,-1.3576,0,-1.3714,-1.3729,-1.3688,-1.3696,-1.3712,-1.3679,-1.3696,-1.3682,-1.3668,-1.3673,-1.364,-1.3646,-1.3611,-1.3613,-1.3593,-1.3607,-1.3606,-1.3597,-1.3592,-1.36,-1.3602,-1.36,-1.3596,-1.3578,-1.3578,-1.3577,-1.3577,0,-1.3792,-1.3765,-1.3776,-1.3749,-1.3743,-1.3756,-1.3733,-1.374,-1.3721,-1.3728,-1.3728,-1.3699,-1.37,-1.3674,-1.367,-1.3656,-1.368,-1.3668,-1.3684,-1.3681,-1.3707,-1.3705,-1.3795,-1.3806,-1.3712,-1.3713,-1.3714,0,-1.3835,-1.3846,-1.382,-1.382,-1.3811,-1.3812,-1.3809,-1.3777,-1.3776,-1.3761,-1.377,-1.3768,-1.3764,-1.3768,-1.3747,-1.3744,-1.3732,-1.3763,-1.3731,-1.374,-1.3733,-1.3733,-1.3734,-1.3771,-1.3772,-1.3773,-1.3774,0,-1.3914,-1.39,-1.3897,-1.389,-1.3888,-1.3881,-1.3871,-1.3874,-1.3839,-1.384,-1.384,-1.3837,-1.3832,-1.3831,-1.3823,-1.3813,-1.3788,-1.3784,-1.3789,-1.3799,-1.3808,-1.3804,-1.3703,-1.3782,-1.3781,-1.3781,-1.378,-1.378,-1.3977,-1.3984,-1.3967,-1.3965,-1.3954,-1.3947,-1.3951,-1.3933,-1.3932,-1.3925,-1.3906,-1.3909,-1.3895,-1.3882,-1.3874,-1.3877,-1.3861,-1.3869,-1.3871,-1.3874,-1.3879,-1.3807,-1.3875,-1.3875,-1.3875,-1.3875,-1.3874,0,-1.4055,-1.4042,-1.404,-1.4028,-1.4026,-1.4001,-1.399,-1.399,-1.3993,-1.3981,-1.3978,-1.3978,-1.3977,-1.3956,-1.3952,-1.3958,-1.3946,-1.3958,-1.3958,-1.3956,-1.3893,-1.3889,-1.3967,-1.3967,-1.3967,-1.3967,-1.3967,-1.3967,-1.4096,-1.4107,-1.4091,-1.4098,-1.4084,-1.4086,-1.4082,-1.4074,-1.4065,-1.4066,-1.4064,-1.4049,-1.4034,-1.4029,-1.4026,-1.402,-1.4021,-1.4036,-1.4027,-1.3969,-1.396,-1.3952,-1.3947,-1.4037,-1.4037,-1.4089,-1.4089,-1.409]},{"header":{"parameterUnit":"m.s-1","parameterCategory":1,"la1":30.2991,"la2":30.254,"lo1":-89.0895,"lo2":-89.0444,"dy":0.0017,"dx":0.0017,"nx":28,"ny":28,"refTime":"2024-05-02T21:00:00:Z","depth":0,"parameterNumber":3,"parameterNumberName":"V-component_of_WINDS"},"data":[0,0,0,0,0,0,0,0,0,0,0,0,0,0,0,0,0,0,0,0,0,0,0,0,0,0,0,0,0,0,0,0,0,0,0,0,0,0,0,0,0,0,0,0,0,0,0,0,0,0,0,0,0,0,0,0,0,0,3.6479,3.6479,0,3.6447,3.6447,3.6446,3.6358,3.6356,3.6354,3.6353,3.6323,3.6323,3.6324,0,0,0,0,0,0,0,0,0,0,0,0,0,3.6467,3.6468,3.6479,3.6479,3.6479,3.6447,3.6447,3.6446,3.6358,3.6356,3.6354,3.6352,3.6322,3.6323,3.6325,0,0,0,0,0,0,0,0,0,0,0,0,0,3.6458,3.6468,3.6479,3.6431,3.6426,3.6447,3.6447,3.6446,3.6359,3.6356,3.6353,3.6351,3.6322,3.6323,3.6325,3.6391,0,0,3.6329,3.633,0,0,0,0,0,0,0,0,3.6458,3.6458,3.6438,3.6434,3.6429,3.6404,3.6431,3.6428,3.636,3.6385,3.6352,3.6349,3.6352,3.6351,3.6351,3.639,3.6389,3.6329,3.633,3.6331,3.6331,0,0,0,0,0,0,0,3.6459,3.6459,3.6467,3.6438,3.6433,3.6411,3.6407,3.643,3.6385,3.6382,3.6376,3.6373,3.6349,3.635,3.635,3.6388,3.6329,3.6331,3.6332,3.6332,3.648,3.6483,0,0,0,0,0,0,3.6466,3.646,3.6468,3.6466,3.6437,3.6414,3.6409,3.6415,3.6384,3.6377,3.6375,3.6369,3.6349,3.6348,3.6348,3.6425,3.6331,3.6332,3.6333,3.6477,3.6481,3.6484,0,0,0,0,0,0,3.6466,3.6468,3.6469,3.6461,3.646,3.6417,3.6425,3.6416,3.6416,3.6379,3.6371,3.6385,3.6347,3.6346,3.6381,3.6422,3.6333,3.6334,3.6473,3.6478,3.6482,3.6578,0,0,0,0,0,0,3.6466,3.6468,3.6493,3.6462,3.646,3.6502,3.6427,3.6417,3.6419,3.641,3.6386,3.6379,3.6344,3.6379,3.6383,3.6423,3.6335,3.647,3.6476,3.6481,3.6571,3.6585,3.6597,0,0,0,0,0,3.6466,3.6521,3.6494,3.6496,3.649,3.6504,3.6503,3.6461,3.6423,3.6447,3.6423,3.638,3.6417,3.6384,3.6387,3.6428,3.6467,3.6474,3.648,3.6565,3.6582,3.6597,0,0,0,0,0,0,3.6559,3.6516,3.6486,3.6533,3.6523,3.6489,3.6519,3.6481,3.6483,3.6475,3.6423,3.6419,3.6461,3.6447,3.6411,3.6491,3.6435,3.6443,3.6498,3.6514,3.6527,3.653,3.6337,0,0,0,0,0,3.6584,3.6599,3.6561,3.6606,3.6602,3.6562,3.6567,3.6535,3.6523,3.6519,3.6497,3.6488,3.6497,3.6505,3.6512,3.6568,3.6562,3.6598,3.6611,3.6622,3.663,3.6659,3.6675,3.6506,3.6506,3.6506,0,0,3.6638,3.6616,3.6629,3.6624,3.6613,3.663,3.6559,3.658,3.6592,3.6522,3.6553,3.6537,3.6524,3.657,3.6589,3.656,3.6675,3.6631,3.664,3.6641,3.6668,3.6684,3.6698,3.6511,3.651,3.651,0,0,3.6744,3.6729,3.6765,3.6754,3.6737,3.671,3.6719,3.6691,3.6677,3.6708,3.6656,3.667,3.6687,3.668,3.6678,3.6782,3.6742,3.6785,3.6855,3.6884,3.6897,3.6909,3.6946,3.696,3.6793,3.6793,3.6793,0,3.6813,3.6835,3.6788,3.6812,3.6812,3.6748,3.6785,3.6777,3.6764,3.6766,3.6733,3.6754,3.674,3.6784,3.6809,3.681,3.6819,3.6788,3.6899,3.691,3.692,3.6955,3.697,3.6798,3.6798,3.6797,3.6797,0,3.6921,3.6938,3.6969,3.6957,3.696,3.699,3.6948,3.6957,3.6926,3.6902,3.6934,3.6915,3.6917,3.6925,3.6895,3.6965,3.6947,3.6908,3.6851,3.6942,3.6975,3.6988,3.6806,3.6804,3.6803,3.6801,0,0,3.7086,3.7046,3.7058,3.7052,3.7029,3.7041,3.7069,3.7069,3.7079,3.7072,3.7094,3.711,3.7073,3.7072,3.704,3.7066,3.715,3.7023,3.7022,3.7048,3.7226,3.7257,3.7273,3.7123,3.7125,3.7127,3.7228,0,3.7186,3.723,3.7188,3.7241,3.7256,3.7196,3.722,3.7209,3.7187,3.7198,3.7174,3.7187,3.7137,3.7135,3.7158,3.7135,3.7185,3.7127,3.7144,3.7146,3.7151,3.729,3.7322,3.7418,3.724,3.7242,3.7244,0,3.731,3.7307,3.7361,3.7334,3.7339,3.7361,3.7359,3.7369,3.7356,3.7338,3.7337,3.7297,3.7324,3.7267,3.7303,3.7265,3.7269,3.7259,3.7262,3.7263,3.7201,3.7295,3.7448,3.7463,3.7263,3.7261,3.726,0,3.7425,3.7435,3.7469,3.7465,3.7434,3.7452,3.744,3.7423,3.7426,3.7425,3.7426,3.7428,3.743,3.7432,3.7395,3.7357,3.7436,3.7377,3.7424,3.7425,3.7444,3.7443,3.76,3.7446,3.7445,3.7445,3.7445,0,3.7542,3.7578,3.752,3.7541,3.758,3.7531,3.7571,3.7553,3.7539,3.7556,3.7504,3.7521,3.747,3.7483,3.7454,3.7489,3.7489,3.7477,3.7469,3.7482,3.7484,3.7485,3.7478,3.7449,3.7448,3.7447,3.7447,0,3.7678,3.7641,3.7673,3.7641,3.7634,3.7664,3.7636,3.7655,3.763,3.7652,3.7655,3.7616,3.7627,3.759,3.7596,3.7577,3.7628,3.7609,3.7633,3.7627,3.7676,3.7673,3.784,3.786,3.7693,3.7694,3.7696,0,3.7756,3.7782,3.7752,3.7759,3.7749,3.7762,3.7764,3.7718,3.7724,3.771,3.773,3.7737,3.7741,3.7763,3.7736,3.774,3.7722,3.778,3.7722,3.7734,3.7723,3.7723,3.7726,3.7792,3.7794,3.7796,3.7797,0,3.7898,3.7878,3.7883,3.7883,3.7887,3.7885,3.7879,3.7888,3.7838,3.7847,3.7858,3.786,3.7866,3.7874,3.7873,3.7862,3.7822,3.7816,3.7827,3.7841,3.7854,3.7849,3.7666,3.7812,3.7811,3.781,3.7809,3.7808,3.8008,3.8028,3.801,3.8018,3.8008,3.8004,3.8019,3.7996,3.8004,3.8004,3.7976,3.7993,3.7979,3.7973,3.7966,3.7979,3.7952,3.7968,3.7972,3.7977,3.7986,3.7851,3.7978,3.7978,3.7978,3.7977,3.7977,0,3.8148,3.8133,3.8141,3.8133,3.814,3.81,3.8091,3.81,3.8115,3.8104,3.8109,3.8122,3.8129,3.8103,3.8107,3.8123,3.8105,3.8125,3.8124,3.8123,3.8009,3.8,3.814,3.814,3.814,3.814,3.814,3.814,3.8222,3.8254,3.8232,3.8259,3.8244,3.8259,3.8258,3.8254,3.8245,3.8262,3.8267,3.8249,3.8233,3.8235,3.8241,3.8233,3.8237,3.8265,3.8251,3.8146,3.813,3.8115,3.8106,3.8266,3.8266,3.8363,3.8364,3.8364]}]]